Wind_Speed
14 14 13 13 12 12 12 12 12 14 15 15 16 16 16 17 17 18 18 18 18 19 18 19 19 20 20 21 21 21 22 22 23 23 23 24 24 25 26 27 28 29 30
14 14 13 13 13 13 12 12 13 14 15 15 16 16 17 17 18 18 18 18 19 19 18 18 19 20 20 20 21 21 21 22 23 23 23 23 24 25 26 27 28 29 30
13 13 13 14 14 14 14 14 16 16 16 16 16 17 17 17 17 18 18 19 19 19 18 18 18 19 19 19 19 20 20 20 21 22 22 23 23 24 25 27 27 28 29
13 13 13 14 14 15 15 15 16 17 18 18 18 18 18 18 18 18 18 19 19 18 18 18 18 18 18 17 17 18 18 18 20 20 22 22 22 23 24 25 26 27 28
13 13 13 14 15 16 16 16 16 17 17 17 18 18 18 18 18 18 18 18 18 18 18 18 18 18 17 16 16 17 18 19 20 21 21 21 22 23 23 24 25 26 27
12 12 13 15 16 16 17 17 17 16 17 18 18 18 18 18 18 17 17 18 18 18 17 17 17 17 16 16 16 16 17 18 19 20 20 20 22 22 23 23 24 25 27
12 13 14 15 16 16 17 17 16 16 17 17 18 18 17 18 18 17 18 18 17 17 16 15 15 16 16 16 16 16 17 18 19 19 20 20 21 22 22 22 23 25 26
13 14 14 15 16 16 16 17 16 17 17 18 18 17 17 17 17 17 17 17 17 17 16 15 15 15 15 15 16 16 17 17 18 19 20 20 21 22 23 23 23 24 25
14 14 14 15 16 16 17 17 17 17 17 17 17 16 17 17 17 17 18 17 17 16 15 15 15 14 15 15 16 16 16 17 17 18 20 20 20 21 22 23 24 25 25
14 14 14 15 15 16 16 17 17 17 17 17 17 17 17 18 18 18 17 17 16 15 15 15 15 15 15 15 16 16 16 17 18 19 20 20 20 20 21 23 24 25 26
14 14 15 15 16 17 17 17 16 16 17 17 17 17 17 18 17 17 16 16 16 15 15 15 15 15 15 15 15 15 16 17 18 19 19 20 20 21 22 22 23 24 25
14 14 15 16 16 17 17 16 16 16 16 17 17 17 17 16 16 16 16 16 16 15 15 15 15 15 16 16 16 16 17 18 18 19 19 19 20 20 21 22 23 24 24
15 15 15 16 16 16 16 15 15 15 16 17 16 16 17 17 16 16 16 16 16 15 15 15 16 16 17 17 17 18 18 18 19 19 19 19 20 21 22 23 23 24 24
14 15 15 15 15 15 14 14 15 16 16 17 17 17 17 17 17 17 16 16 15 15 16 16 16 16 17 17 18 18 18 18 19 19 19 20 21 21 22 22 23 23 24
14 15 15 14 14 14 14 15 15 16 16 16 17 17 17 17 17 17 17 16 16 16 16 16 16 17 17 18 18 18 18 19 19 20 20 21 21 22 22 22 22 22 23
15 15 14 14 14 14 14 15 16 16 16 17 17 18 18 18 17 17 17 17 16 17 17 17 17 17 17 18 18 18 19 19 19 20 21 21 22 22 21 21 21 22 23
16 15 15 15 15 15 15 16 16 16 17 17 18 19 19 18 17 17 17 17 17 17 17 17 17 18 18 18 18 18 18 19 19 20 21 21 22 21 21 21 22 23 24
16 16 16 16 15 15 15 16 17 17 17 18 18 19 19 18 17 17 17 17 18 18 18 18 19 19 19 18 19 19 19 20 20 21 21 21 21 21 21 22 22 23 23
17 16 16 16 16 17 17 18 18 18 18 18 19 19 19 19 18 18 18 18 18 18 19 19 19 19 19 19 19 19 20 20 21 21 21 21 21 21 22 22 22 23 23
17 17 17 17 17 18 18 18 18 18 19 19 19 19 19 19 19 19 19 18 19 19 19 20 20 20 20 20 19 20 20 20 20 20 20 20 21 21 22 22 22 22 22
17 17 17 17 17 18 19 19 19 19 20 20 20 20 20 19 20 20 20 19 19 20 20 20 20 20 20 20 20 20 20 20 20 21 21 21 21 21 21 21 21 21 21
18 18 18 18 18 18 19 19 20 20 20 21 21 21 21 21 21 21 21 20 20 20 20 20 20 20 20 20 20 21 21 21 22 22 22 22 22 21 21 21 21 21 21
19 19 19 19 19 19 19 20 20 21 21 22 22 22 22 22 22 21 21 21 21 20 20 21 21 21 21 21 21 22 22 22 23 23 23 23 23 22 22 22 22 22 22
20 20 19 19 19 20 20 21 21 22 22 22 22 22 23 22 22 22 22 21 20 20 20 21 21 21 21 21 22 22 23 23 23 24 24 24 23 23 23 23 22 23 23
21 20 20 20 20 21 21 22 22 22 22 22 22 22 22 22 22 22 22 22 21 21 21 21 21 21 22 22 23 23 23 23 23 23 23 23 23 23 23 23 22 22 22
21 21 21 20 20 21 21 21 21 21 21 20 21 21 21 20 21 21 21 21 21 21 21 21 21 21 21 22 22 22 22 23 23 23 22 22 22 22 21 21 20 20 20
Wind_Direction
293 296 299 302 304 303 305 309 313 314 314 310 308 308 306 305 305 304 302 300 297 296 291 287 283 281 277 272 271 270 268 267 266 266 266 265 262 259 256 254 252 251 250
293 293 296 299 301 301 303 307 314 316 316 314 309 309 306 304 305 304 302 299 298 297 294 292 288 285 280 276 275 272 270 270 269 269 269 269 266 262 259 256 254 253 253
294 298 297 301 304 304 304 307 310 313 314 315 313 312 307 306 307 306 304 302 302 300 299 296 292 287 280 278 275 273 273 274 272 270 270 270 268 265 261 258 256 254 253
291 295 298 301 303 304 304 305 308 310 311 313 312 312 311 309 309 309 306 304 303 302 300 298 294 288 283 281 279 276 274 275 274 272 271 270 270 268 264 259 258 255 254
290 295 298 300 301 302 302 303 308 311 312 311 312 312 311 311 310 309 306 304 304 303 301 298 294 292 287 282 280 279 276 274 273 273 272 271 270 269 267 261 259 258 257
291 296 299 299 300 299 300 302 308 311 312 312 314 314 312 311 311 309 307 304 304 304 302 298 295 292 289 285 282 279 277 275 275 275 275 273 271 270 269 265 262 260 258
294 296 298 298 299 300 301 304 307 310 311 311 312 312 312 313 312 310 309 306 305 306 303 300 298 296 292 289 284 282 282 278 276 275 276 274 274 272 268 266 265 262 260
296 299 300 300 300 301 304 306 306 307 308 310 312 312 312 312 311 310 311 310 308 308 305 303 303 300 297 292 289 284 282 282 278 276 277 276 277 274 269 266 265 265 263
296 300 302 304 302 302 304 307 307 308 309 310 311 313 312 312 311 309 309 310 308 307 307 306 306 300 300 300 295 290 286 286 285 283 280 278 277 275 272 270 268 266 264
298 299 302 304 304 305 305 307 308 309 308 310 311 311 313 315 312 310 310 311 309 308 306 303 305 301 300 300 298 294 292 291 290 289 286 282 279 276 275 274 272 269 267
298 299 301 302 301 302 303 304 306 306 307 309 312 314 316 319 315 313 312 312 311 311 309 306 304 304 303 302 298 295 293 292 290 289 289 285 282 282 280 279 276 273 271
298 299 301 302 302 301 303 300 301 305 309 312 313 315 318 320 321 317 316 314 311 310 309 308 307 307 306 303 299 295 294 293 292 290 288 286 284 282 281 281 278 277 275
295 296 299 300 302 304 307 305 305 306 309 313 315 318 318 319 319 318 316 314 312 310 310 310 309 309 308 306 303 300 296 295 294 292 290 289 287 285 284 283 281 282 280
294 295 297 299 299 301 305 307 308 308 310 313 315 317 319 319 318 317 316 313 311 311 311 313 311 309 308 306 304 302 298 297 297 295 293 292 290 288 286 284 283 283 281
293 294 295 296 296 299 302 305 308 309 310 312 314 317 317 317 317 317 316 313 310 309 311 311 310 307 306 306 304 302 301 299 298 297 296 296 294 291 288 286 286 286 284
292 293 293 295 295 297 300 304 306 308 308 310 312 315 316 316 316 312 311 311 309 308 308 309 309 308 306 307 306 305 304 302 301 299 298 298 297 294 290 287 287 287 286
292 292 291 293 295 297 299 301 304 307 309 310 312 313 314 315 316 314 310 309 309 309 309 310 309 310 309 308 308 308 308 307 304 303 302 300 300 297 293 291 289 289 288
288 288 288 291 294 297 298 301 306 310 311 311 312 313 313 312 311 311 310 309 308 308 310 310 309 307 307 309 309 308 308 308 307 305 304 304 303 300 296 293 293 293 292
286 284 284 288 292 295 297 298 301 305 309 311 312 312 312 311 309 308 306 305 306 306 308 309 308 306 303 304 307 309 310 310 309 308 306 305 303 301 299 297 296 295 293
282 281 282 286 291 294 296 297 300 303 306 308 308 309 311 310 309 307 304 304 305 306 306 306 307 306 305 305 306 307 309 310 311 309 307 305 304 303 301 299 298 296 295
281 280 281 285 289 293 295 296 299 301 303 305 306 308 309 310 311 309 306 304 304 306 306 306 306 306 305 304 305 306 308 309 309 308 307 306 305 305 304 303 301 300 299
278 279 281 284 288 290 292 295 298 301 303 304 305 307 307 309 310 309 307 305 304 305 306 306 307 306 304 303 304 305 305 307 307 306 305 304 305 304 302 303 303 303 303
277 278 279 281 285 288 292 295 298 300 302 303 304 305 306 308 309 309 307 305 304 304 304 305 305 304 302 302 303 305 303 304 306 306 304 303 302 300 300 300 300 300 301
275 277 279 279 283 287 291 294 296 298 301 302 303 303 304 306 307 308 307 306 305 305 304 304 304 302 301 300 301 301 301 302 304 305 304 302 299 298 299 300 301 301 302
276 277 278 279 281 286 291 294 296 298 299 301 302 303 304 304 305 306 305 305 306 306 304 303 304 305 305 304 305 305 304 306 307 307 306 304 303 302 301 300 299 301 302
279 278 278 279 280 285 290 294 298 300 302 304 306 307 308 309 310 311 311 311 311 310 310 309 309 308 309 309 310 309 309 311 310 307 306 305 305 305 302 302 301 300 301
Height
5849 5847 5846 5844 5843 5841 5839 5837 5835 5833 5831 5829 5827 5825 5823 5821 5819 5816 5814 5812 5810 5808 5807 5806 5805 5804 5803 5802 5802 5801 5801 5801 5801 5801 5800 5800 5799 5800 5801 5801 5803 5804 5805
5846 5845 5843 5842 5840 5838 5836 5834 5832 5830 5828 5826 5824 5821 5819 5817 5815 5813 5810 5808 5806 5804 5802 5801 5799 5798 5797 5797 5796 5796 5795 5795 5794 5794 5794 5794 5794 5794 5794 5795 5795 5797 5798
5843 5841 5840 5839 5837 5835 5833 5831 5829 5827 5825 5823 5820 5818 5815 5813 5810 5808 5806 5804 5801 5799 5797 5795 5794 5792 5792 5791 5790 5790 5789 5789 5788 5787 5787 5787 5787 5787 5788 5788 5789 5789 5791
5840 5838 5837 5836 5834 5832 5831 5829 5826 5824 5821 5819 5816 5814 5811 5809 5807 5804 5802 5799 5797 5794 5792 5790 5789 5787 5787 5786 5785 5784 5784 5783 5782 5782 5781 5781 5780 5781 5781 5782 5782 5782 5783
5836 5835 5834 5832 5831 5829 5827 5825 5823 5820 5817 5815 5813 5810 5807 5805 5803 5800 5797 5795 5792 5790 5788 5786 5784 5783 5782 5781 5780 5779 5778 5778 5777 5776 5776 5775 5775 5774 5775 5775 5775 5776 5777
5833 5832 5831 5829 5828 5826 5824 5822 5820 5817 5814 5811 5809 5806 5803 5801 5798 5796 5793 5791 5789 5786 5783 5781 5780 5778 5777 5776 5775 5774 5773 5772 5771 5771 5770 5769 5769 5768 5768 5768 5769 5769 5770
5830 5829 5828 5826 5824 5822 5820 5818 5816 5813 5811 5808 5805 5802 5799 5797 5795 5792 5790 5787 5785 5782 5779 5777 5775 5774 5772 5771 5770 5769 5768 5767 5766 5765 5764 5763 5763 5762 5762 5762 5762 5762 5763
5827 5826 5824 5822 5821 5819 5817 5815 5813 5810 5807 5804 5801 5798 5796 5793 5791 5788 5785 5783 5781 5778 5776 5773 5771 5770 5768 5766 5765 5764 5763 5762 5761 5760 5759 5758 5757 5756 5756 5756 5756 5755 5756
5824 5823 5821 5819 5817 5815 5813 5811 5809 5806 5803 5800 5797 5795 5792 5789 5787 5784 5781 5779 5776 5774 5772 5770 5768 5766 5764 5762 5761 5759 5758 5757 5756 5755 5753 5752 5752 5751 5750 5750 5749 5749 5748
5821 5819 5817 5816 5814 5812 5810 5807 5805 5802 5800 5797 5794 5791 5789 5786 5782 5779 5777 5775 5772 5770 5768 5766 5764 5762 5760 5758 5757 5755 5753 5752 5750 5749 5748 5747 5746 5745 5744 5743 5742 5742 5741
5817 5816 5814 5812 5810 5808 5806 5804 5801 5799 5796 5793 5791 5788 5785 5782 5778 5775 5773 5771 5769 5766 5764 5762 5760 5758 5756 5755 5753 5751 5749 5747 5746 5744 5743 5741 5740 5739 5738 5737 5735 5734 5734
5814 5812 5810 5808 5806 5804 5802 5800 5797 5795 5792 5790 5787 5784 5781 5778 5775 5772 5770 5767 5765 5763 5761 5759 5756 5754 5753 5751 5748 5746 5744 5742 5741 5739 5737 5736 5734 5733 5732 5730 5729 5727 5726
5810 5808 5806 5804 5802 5800 5798 5796 5793 5791 5789 5786 5783 5780 5778 5775 5772 5769 5766 5764 5762 5759 5757 5755 5753 5751 5749 5746 5744 5742 5740 5738 5736 5734 5732 5730 5728 5727 5725 5723 5722 5720 5718
5805 5804 5802 5800 5798 5797 5795 5792 5790 5788 5785 5782 5780 5777 5774 5771 5768 5765 5763 5760 5758 5756 5754 5751 5749 5747 5745 5742 5740 5737 5735 5733 5730 5728 5726 5724 5722 5721 5719 5717 5715 5713 5711
5801 5800 5798 5796 5795 5793 5791 5789 5786 5784 5781 5779 5776 5773 5771 5768 5765 5762 5759 5757 5754 5752 5750 5747 5745 5743 5740 5738 5735 5733 5730 5727 5725 5723 5721 5718 5716 5714 5712 5710 5708 5706 5704
5796 5795 5794 5793 5791 5789 5787 5785 5782 5780 5777 5775 5772 5769 5767 5764 5761 5758 5755 5753 5750 5748 5746 5743 5741 5738 5736 5734 5731 5728 5725 5722 5720 5717 5715 5712 5710 5708 5705 5703 5701 5699 5697
5792 5791 5790 5788 5787 5785 5783 5781 5778 5776 5773 5771 5768 5765 5762 5760 5757 5754 5751 5749 5746 5744 5741 5739 5737 5734 5732 5729 5726 5723 5720 5717 5715 5712 5709 5707 5704 5701 5699 5697 5695 5693 5690
5788 5787 5785 5784 5782 5780 5778 5776 5774 5772 5769 5766 5763 5761 5758 5755 5753 5750 5747 5745 5742 5740 5737 5735 5732 5729 5727 5724 5721 5718 5715 5712 5710 5707 5704 5701 5698 5695 5693 5691 5689 5686 5683
5783 5782 5781 5779 5778 5776 5774 5772 5770 5767 5765 5762 5759 5756 5753 5751 5748 5746 5743 5740 5738 5735 5732 5730 5727 5724 5722 5719 5716 5714 5711 5707 5704 5702 5699 5696 5693 5690 5687 5685 5682 5679 5677
5778 5777 5775 5774 5772 5771 5769 5767 5765 5763 5760 5758 5755 5752 5749 5746 5743 5741 5738 5735 5733 5730 5727 5724 5722 5719 5716 5714 5711 5708 5706 5703 5700 5697 5694 5691 5688 5685 5681 5679 5676 5673 5670
5772 5771 5770 5769 5767 5765 5763 5761 5760 5757 5755 5752 5750 5747 5744 5741 5738 5735 5732 5730 5727 5724 5722 5719 5716 5713 5711 5708 5706 5703 5700 5697 5694 5692 5689 5686 5682 5679 5676 5673 5670 5667 5664
5767 5766 5765 5763 5762 5760 5758 5756 5754 5752 5749 5747 5744 5741 5739 5736 5733 5730 5727 5724 5721 5719 5716 5713 5710 5708 5705 5703 5700 5698 5695 5692 5689 5686 5683 5680 5677 5673 5670 5667 5665 5662 5658
5761 5760 5759 5757 5756 5754 5753 5751 5749 5746 5743 5741 5738 5736 5733 5730 5727 5724 5721 5718 5715 5713 5710 5708 5705 5702 5699 5697 5694 5692 5689 5686 5683 5679 5676 5673 5670 5667 5665 5662 5659 5656 5652
5754 5754 5752 5751 5750 5748 5747 5745 5743 5740 5737 5735 5732 5729 5727 5724 5721 5718 5715 5712 5709 5707 5704 5701 5699 5696 5693 5691 5689 5686 5683 5679 5676 5673 5670 5667 5664 5661 5658 5655 5652 5649 5646
5748 5747 5746 5745 5744 5742 5741 5739 5736 5734 5731 5729 5726 5723 5721 5718 5715 5712 5710 5707 5704 5701 5699 5696 5693 5690 5688 5685 5682 5679 5676 5673 5669 5666 5663 5660 5657 5654 5651 5648 5646 5643 5640
5741 5740 5739 5738 5737 5736 5734 5732 5730 5728 5725 5723 5720 5718 5715 5712 5710 5707 5704 5701 5698 5696 5693 5690 5688 5685 5682 5679 5676 5673 5669 5666 5662 5660 5657 5654 5651 5648 5645 5642 5639 5637 5634